User: anonymous   Login
Location: Caltech
(34.1382°N, 118.1253°W)
Time: 05:25:43
(UTC-08:00)
Language:

Iridium 65 - Orbit

View from above orbital plane
View from above orbital plane
View from above satellite
View from above satellite

Ground track
Ground track

The orbit data is extracted from the following two-line orbital elements,

1 25288U 98021D   17052.13780457 -.00000013  00000-0 -11580-4 0  9990
2 25288  86.3930 272.3595 0001999  78.8306 281.3114 14.34217868988389
Epoch (UTC): 21 February 2017 03:18:26
Eccentricity: 0.0001999
inclination: 86.3930°
perigee height: 776 km
apogee height: 779 km
right ascension of ascending node: 272.3595°
argument of perigee: 78.8306°
revolutions per day: 14.34217868
mean anomaly at epoch: 281.3114°
orbit number at epoch: 98838

The dashed part of the orbit path shows where the satellite is in the earth's shadow,  

DLR